TimeEST,TemperatureF,Dew PointF,Humidity,Sea Level PressureIn,VisibilityMPH,Wind Direction,Wind SpeedMPH,Gust SpeedMPH,PrecipitationIn,Events,Conditions,WindDirDegrees,DateUTC
12:53 AM,9.0,7.0,92,30.10,10.0,West,3.5,-,N/A,,Clear,260,2013-03-04 05:53:00
1:53 AM,8.1,6.1,92,30.11,10.0,Calm,Calm,-,N/A,,Clear,0,2013-03-04 06:53:00
2:53 AM,5.0,1.0,84,30.11,10.0,NW,3.5,-,N/A,,Clear,310,2013-03-04 07:53:00
3:53 AM,3.9,-0.0,84,30.10,10.0,Calm,Calm,-,N/A,,Clear,0,2013-03-04 08:53:00
4:53 AM,-0.0,-4.0,83,30.12,10.0,WNW,3.5,-,N/A,,Clear,300,2013-03-04 09:53:00
5:53 AM,3.0,-0.9,84,30.14,10.0,Calm,Calm,-,N/A,,Clear,0,2013-03-04 10:53:00
6:53 AM,3.0,-2.0,80,30.14,10.0,Calm,Calm,-,N/A,,Clear,0,2013-03-04 11:53:00
7:53 AM,-5.1,-7.1,91,30.16,10.0,Calm,Calm,-,N/A,,Clear,0,2013-03-04 12:53:00
8:53 AM,1.0,1.0,100,30.17,10.0,Calm,Calm,-,N/A,,Clear,0,2013-03-04 13:53:00
9:53 AM,16.0,10.0,77,30.16,10.0,North,6.9,-,N/A,,Clear,10,2013-03-04 14:53:00
10:53 AM,18.0,10.0,71,30.16,10.0,NNE,4.6,-,N/A,,Clear,30,2013-03-04 15:53:00
11:53 AM,21.9,10.9,63,30.16,10.0,Calm,Calm,-,N/A,,Clear,0,2013-03-04 16:53:00
12:53 PM,25.0,10.9,55,30.15,10.0,Variable,3.5,-,N/A,,Clear,0,2013-03-04 17:53:00
1:53 PM,26.1,10.9,53,30.14,10.0,Calm,Calm,-,N/A,,Clear,0,2013-03-04 18:53:00
2:53 PM,28.0,10.9,49,30.12,10.0,Variable,3.5,-,N/A,,Clear,0,2013-03-04 19:53:00
3:53 PM,30.0,9.0,41,30.12,10.0,Calm,Calm,-,N/A,,Clear,0,2013-03-04 20:53:00
4:53 PM,28.9,7.0,40,30.13,10.0,NE,3.5,-,N/A,,Clear,40,2013-03-04 21:53:00
5:53 PM,28.0,9.0,45,30.13,10.0,NNW,4.6,-,N/A,,Clear,330,2013-03-04 22:53:00
6:53 PM,24.1,9.0,53,30.14,10.0,NNW,3.5,-,N/A,,Clear,340,2013-03-04 23:53:00
7:53 PM,21.0,8.1,57,30.17,10.0,Calm,Calm,-,N/A,,Clear,0,2013-03-05 00:53:00
8:53 PM,19.0,7.0,59,30.17,10.0,Calm,Calm,-,N/A,,Clear,0,2013-03-05 01:53:00
9:53 PM,16.0,6.1,65,30.16,10.0,Calm,Calm,-,N/A,,Clear,0,2013-03-05 02:53:00
10:53 PM,14.0,3.9,64,30.17,10.0,Calm,Calm,-,N/A,,Clear,0,2013-03-05 03:53:00
11:53 PM,8.1,3.0,80,30.17,10.0,Calm,Calm,-,N/A,,Clear,0,2013-03-05 04:53:00